Berlin, NH

7:44 AM EDT on April 27, 2017 (GMT -0400)
Berlin Municipal

Weather History for KBML - November, 2011

Change the Weather History Date:

Tuesday, November 29, 2011

  Actual Average Record
Temperature  
Mean Temperature 47 °F -  
Max Temperature 57 °F 34 °F 57 °F (2003)
Min Temperature 37 °F 18 °F -2 °F (2014)
Degree Days  
Heating Degree Days 18    
Moisture  
Dew Point 44 °F    
Average Humidity 88    
Maximum Humidity 100    
Minimum Humidity 77    
Precipitation  
Precipitation 0.00 in - - ()
Sea Level Pressure  
Sea Level Pressure 30.01 in    
Wind  
Wind Speed 2 mph (SSE)    
Max Wind Speed 22 mph    
Max Gust Speed 30 mph    
Visibility 9 miles    
Events Rain    
Averages and records for this station are not official NWS values.
T = Trace of Precipitation, MM = Missing Value Source: NWS Daily Summary

Daily Weather History Graph

Daily Weather History Graph

Search for Another Location

Airport or City:

Trip Planner

Search our weather history database for the weather conditions in past years. The results will help you decide how hot, cold, wet, or windy it might be!

Date:

Astronomy

Nov. 29, 2011 Rise Set
Actual Time 6:58 AM EST 4:06 PM EST
Civil Twilight 6:26 AM EST 4:39 PM EST
Nautical Twilight 5:49 AM EST 5:15 PM EST
Astronomical Twilight 5:14 AM EST 5:50 PM EST
Moon 10:39 AM EST (11/29) 9:01 PM EST (11/29)
Length of Visible Light 10h 13m
Length of Day
9h 08m
Waxing Crescent, 24% of the Moon is Illuminated
Nov 29
Waxing Crescent
Dec 2
First Quarter
Dec 10
Full
Dec 17
Last Quarter
Dec 24
New

Hourly Weather History & Observations

Time (EST) Temp. Dew Point Humidity Pressure Visibility Wind Dir Wind Speed Gust Speed Precip Events Conditions
12:52 AM 41.0 °F 39.0 °F 93% 30.12 in 10.0 mi Calm Calm - N/A   Overcast
1:09 AM 41.0 °F 39.2 °F 93% 30.09 in 10.0 mi Calm Calm - N/A   Overcast
1:47 AM 41.0 °F 39.2 °F 93% 30.08 in 10.0 mi Calm Calm - N/A   Overcast
1:59 AM 41.0 °F 39.2 °F 93% 30.09 in 10.0 mi Calm Calm - N/A   Overcast
2:16 AM 41.0 °F 39.2 °F 93% 30.09 in 10.0 mi Calm Calm - N/A   Overcast
2:52 AM 41.0 °F 39.9 °F 96% 30.12 in 10.0 mi Calm Calm - N/A   Overcast
3:52 AM 42.1 °F 39.9 °F 92% 30.11 in 10.0 mi Calm Calm - N/A   Overcast
4:52 AM 42.1 °F 39.9 °F 92% 30.11 in 10.0 mi Calm Calm - N/A   Overcast
5:52 AM 41.0 °F 39.0 °F 93% 30.11 in 10.0 mi Calm Calm - N/A   Overcast
6:52 AM 39.9 °F 39.0 °F 97% 30.11 in 9.0 mi Calm Calm - N/A   Overcast
7:29 AM 37.4 °F 37.4 °F 100% 30.08 in 1.8 mi Calm Calm - N/A   Overcast
7:32 AM 37.4 °F 37.4 °F 100% 30.08 in 0.8 mi Calm Calm - N/A   Overcast
7:41 AM 39.2 °F 37.4 °F 93% 30.08 in 2.0 mi Calm Calm - N/A   Mostly Cloudy
7:48 AM 39.2 °F 37.4 °F 93% 30.09 in 5.0 mi Calm Calm - N/A   Overcast
7:52 AM 39.9 °F 37.9 °F 93% 30.12 in 6.0 mi Calm Calm - N/A   Overcast
8:52 AM 44.1 °F 41.0 °F 89% 30.11 in 10.0 mi Calm Calm - N/A   Mostly Cloudy
9:52 AM 48.0 °F 44.1 °F 86% 30.11 in 10.0 mi Calm Calm - N/A   Overcast
11:52 AM 51.1 °F 45.0 °F 80% 30.06 in 10.0 mi NNW 3.5 mph - N/A   Overcast
12:52 PM 53.1 °F 46.0 °F 77% 30.04 in 10.0 mi Calm Calm - N/A   Overcast
1:52 PM 55.0 °F 48.0 °F 77% 30.01 in 10.0 mi South 8.1 mph - N/A   Overcast
2:52 PM 57.0 °F 50.0 °F 77% 30.00 in 10.0 mi SE 10.4 mph 16.1 mph N/A   Overcast
3:52 PM 55.0 °F 48.9 °F 80% 30.00 in 10.0 mi SSE 6.9 mph - N/A   Overcast
4:52 PM 54.0 °F 48.9 °F 83% 29.99 in 10.0 mi SE 11.5 mph - N/A   Overcast
5:52 PM 54.0 °F 46.9 °F 77% 29.97 in 10.0 mi SSE 3.5 mph - N/A   Mostly Cloudy
6:52 PM 53.1 °F 46.9 °F 80% 29.95 in 10.0 mi SE 9.2 mph - N/A   Partly Cloudy
7:52 PM 54.0 °F 48.9 °F 83% 29.93 in 10.0 mi SSE 15.0 mph 24.2 mph N/A   Partly Cloudy
8:52 PM 55.9 °F 50.0 °F 80% 29.90 in 10.0 mi South 21.9 mph 29.9 mph N/A   Overcast
9:13 PM 55.4 °F 51.8 °F 88% 29.88 in 10.0 mi South 11.5 mph 17.3 mph N/A   Overcast
9:26 PM 55.4 °F 51.8 °F 88% 29.87 in 10.0 mi SSE 11.5 mph 18.4 mph N/A   Overcast
9:52 PM 54.0 °F 51.1 °F 90% 29.86 in 8.0 mi SSE 11.5 mph - 0.00 in Rain Light Rain
10:52 PM 55.0 °F 50.0 °F 83% 29.80 in 10.0 mi Variable 4.6 mph - 0.00 in   Overcast
11:03 PM 53.6 °F 50.0 °F 88% 29.79 in 10.0 mi Variable 3.5 mph - 0.00 in Rain Light Rain
11:30 PM 55.4 °F 50.0 °F 82% 29.76 in 10.0 mi Variable 3.5 mph - 0.00 in   Overcast
11:52 PM 54.0 °F 50.0 °F 86% 29.77 in 10.0 mi South 3.5 mph - 0.00 in Rain Light Rain